[[{"header":{"parameterUnit":"m.s-1","parameterCategory":1,"la1":30.2991,"la2":30.254,"lo1":-89.0895,"lo2":-89.0444,"dy":0.0017,"dx":0.0017,"nx":28,"ny":28,"refTime":"2023-09-24T03:00:00:Z","depth":0,"parameterNumber":2,"parameterNumberName":"U-component_of_WINDS"},"data":[0,0,0,0,0,0,0,0,0,0,0,0,0,0,0,0,0,0,0,0,0,0,0,0,0,0,0,0,0,0,0,0,0,0,0,0,0,0,0,0,0,0,0,0,0,0,0,0,0,0,0,0,0,0,0,0,0,0,0.095,0.0951,0,0.1023,0.1023,0.1024,0.1074,0.1074,0.1075,0.1075,0.1148,0.1149,0.1151,0,0,0,0,0,0,0,0,0,0,0,0,0,0.085,0.0852,0.095,0.0951,0.0952,0.1023,0.1024,0.1024,0.1074,0.1074,0.1075,0.1075,0.1147,0.1149,0.1151,0,0,0,0,0,0,0,0,0,0,0,0,0,0.0905,0.0852,0.095,0.0985,0.0989,0.1022,0.1024,0.1025,0.1074,0.1074,0.1075,0.1075,0.1146,0.1149,0.1151,0.1155,0,0,0.1158,0.1159,0,0,0,0,0,0,0,0,0.0902,0.0909,0.0979,0.0982,0.0987,0.104,0.1015,0.1068,0.1074,0.1041,0.1075,0.1076,0.1111,0.1116,0.1129,0.1158,0.1161,0.1159,0.116,0.1161,0.1162,0,0,0,0,0,0,0,0.0898,0.0906,0.0979,0.098,0.0985,0.0996,0.1004,0.1025,0.1072,0.1044,0.1048,0.1056,0.1113,0.1126,0.1131,0.1162,0.1159,0.1161,0.1162,0.1163,0.1197,0.1196,0,0,0,0,0,0,0.0889,0.0902,0.0976,0.0981,0.0945,0.0997,0.1007,0.1022,0.1072,0.108,0.1056,0.1058,0.1122,0.1128,0.1134,0.114,0.1161,0.1163,0.1165,0.1197,0.1197,0.1196,0,0,0,0,0,0,0.0887,0.0895,0.0973,0.0943,0.0953,0.0999,0.1015,0.1023,0.1036,0.1081,0.1089,0.106,0.1123,0.113,0.1149,0.1143,0.1164,0.1167,0.1198,0.1197,0.1196,0.1154,0,0,0,0,0,0,0.0884,0.0894,0.0897,0.0942,0.0955,0.0988,0.1015,0.1024,0.1041,0.1045,0.1088,0.1095,0.1124,0.1145,0.1151,0.1147,0.1168,0.1199,0.1198,0.1197,0.1156,0.1152,0.1148,0,0,0,0,0,0.088,0.0882,0.0897,0.0905,0.0959,0.0988,0.0995,0.1028,0.104,0.1042,0.1071,0.1094,0.1143,0.1147,0.1154,0.115,0.1199,0.1198,0.1197,0.1158,0.1152,0.1148,0,0,0,0,0,0,0.0834,0.0888,0.0906,0.0922,0.095,0.0996,0.1,0.1022,0.1046,0.1049,0.1089,0.1098,0.1113,0.1134,0.1136,0.1156,0.1174,0.1174,0.1142,0.1137,0.1133,0.1127,0.117,0,0,0,0,0,0.0825,0.0845,0.0891,0.0901,0.0914,0.0955,0.0968,0.0992,0.1022,0.1034,0.1064,0.1091,0.1113,0.1126,0.1149,0.1159,0.1169,0.116,0.1156,0.1153,0.1152,0.1158,0.1155,0.1192,0.1192,0.1192,0,0,0.0808,0.0841,0.085,0.0893,0.0917,0.0935,0.0964,0.0982,0.0996,0.1036,0.1056,0.1078,0.1112,0.1126,0.1134,0.1144,0.1144,0.1151,0.1148,0.115,0.1157,0.1153,0.115,0.1191,0.1191,0.1192,0,0,0.0786,0.0813,0.0824,0.0848,0.0884,0.0911,0.0914,0.0956,0.0973,0.0993,0.1024,0.104,0.1077,0.1099,0.1115,0.1101,0.1122,0.1107,0.1086,0.1091,0.1088,0.1086,0.1079,0.1077,0.1106,0.1106,0.1106,0,0.076,0.079,0.0827,0.0843,0.086,0.0898,0.0908,0.093,0.0971,0.0981,0.0993,0.1039,0.1064,0.1084,0.108,0.1092,0.1095,0.1102,0.1086,0.1084,0.1082,0.1076,0.1074,0.1104,0.1104,0.1104,0.1105,0,0.0755,0.0775,0.0779,0.0819,0.0837,0.085,0.0888,0.0901,0.0923,0.0948,0.0967,0.0999,0.1028,0.1034,0.1055,0.1056,0.1061,0.1078,0.1097,0.1075,0.1071,0.1069,0.1101,0.1102,0.1102,0.1103,0,0,0.0706,0.0766,0.0766,0.0784,0.0827,0.0843,0.0857,0.0886,0.0896,0.0923,0.0935,0.0965,0.0981,0.1,0.1024,0.1028,0.1013,0.1045,0.1046,0.1037,0.1014,0.1,0.0997,0.1028,0.1028,0.1028,0.1011,0,0.0689,0.0718,0.0751,0.0768,0.0786,0.0822,0.0834,0.0861,0.0885,0.0903,0.0929,0.0949,0.0969,0.098,0.0987,0.1014,0.1009,0.1016,0.1039,0.1039,0.1028,0.0995,0.0981,0.0963,0.101,0.1009,0.1009,0,0.0674,0.07,0.0719,0.0759,0.0768,0.0778,0.0807,0.0824,0.0855,0.0872,0.0892,0.0917,0.0933,0.095,0.0972,0.0975,0.0987,0.1001,0.1001,0.1004,0.1022,0.0996,0.0959,0.0956,0.1007,0.1007,0.1007,0,0.0635,0.0674,0.069,0.0705,0.0753,0.0759,0.0779,0.081,0.0825,0.085,0.086,0.0886,0.09,0.0919,0.095,0.096,0.0968,0.0988,0.0981,0.098,0.0981,0.098,0.0944,0.099,0.099,0.099,0.099,0,0.0613,0.0622,0.0673,0.0683,0.0694,0.0732,0.0742,0.0765,0.0792,0.0806,0.0839,0.0851,0.0893,0.0909,0.0934,0.0947,0.0954,0.0967,0.0973,0.0963,0.0961,0.0971,0.0972,0.0989,0.0989,0.0989,0.0989,0,0.057,0.0605,0.0624,0.0668,0.0679,0.0685,0.0722,0.0732,0.0758,0.0775,0.0781,0.0821,0.0842,0.0876,0.0907,0.0924,0.0932,0.0943,0.0921,0.0925,0.0916,0.0916,0.0884,0.0881,0.0929,0.0928,0.0928,0,0.0553,0.0561,0.0606,0.0618,0.0637,0.0656,0.0671,0.0708,0.0723,0.0758,0.0763,0.0787,0.0808,0.0841,0.0871,0.0895,0.0906,0.0894,0.091,0.09,0.0905,0.0903,0.0904,0.0889,0.0889,0.0888,0.0888,0,0.0519,0.0535,0.0557,0.0584,0.0601,0.0624,0.0649,0.0656,0.0699,0.0713,0.0735,0.0752,0.0784,0.0806,0.0834,0.0854,0.0877,0.0882,0.0882,0.0871,0.0858,0.0863,0.091,0.0883,0.0883,0.0883,0.0884,0.0884,0.0488,0.0496,0.0529,0.0551,0.0574,0.0595,0.0607,0.0634,0.0653,0.0682,0.0703,0.0724,0.0753,0.0793,0.0811,0.0827,0.0838,0.0837,0.0837,0.0836,0.0832,0.0856,0.0833,0.0833,0.0833,0.0833,0.0833,0,0.0454,0.0477,0.0497,0.053,0.0547,0.0569,0.0597,0.0609,0.0627,0.0653,0.0673,0.0698,0.072,0.0753,0.0777,0.0784,0.0795,0.0789,0.0788,0.0792,0.0822,0.0819,0.0779,0.0779,0.0779,0.0779,0.0779,0.0779,0.0438,0.0454,0.0474,0.05,0.0522,0.0543,0.0557,0.0577,0.0598,0.0625,0.0643,0.0665,0.0693,0.0719,0.074,0.0749,0.0756,0.0746,0.0758,0.0785,0.079,0.0795,0.0792,0.0748,0.0748,0.0727,0.0727,0.0727]},{"header":{"parameterUnit":"m.s-1","parameterCategory":1,"la1":30.2991,"la2":30.254,"lo1":-89.0895,"lo2":-89.0444,"dy":0.0017,"dx":0.0017,"nx":28,"ny":28,"refTime":"2023-09-24T03:00:00:Z","depth":0,"parameterNumber":3,"parameterNumberName":"V-component_of_WINDS"},"data":[0,0,0,0,0,0,0,0,0,0,0,0,0,0,0,0,0,0,0,0,0,0,0,0,0,0,0,0,0,0,0,0,0,0,0,0,0,0,0,0,0,0,0,0,0,0,0,0,0,0,0,0,0,0,0,0,0,0,4.0828,4.0828,0,4.0773,4.0773,4.0772,4.0688,4.0686,4.0685,4.0683,4.0628,4.0628,4.0628,0,0,0,0,0,0,0,0,0,0,0,0,0,4.0861,4.086,4.0828,4.0828,4.0827,4.0773,4.0773,4.0772,4.0688,4.0686,4.0684,4.0682,4.0628,4.0628,4.0628,0,0,0,0,0,0,0,0,0,0,0,0,0,4.083,4.086,4.0828,4.0778,4.0773,4.0774,4.0773,4.0772,4.0688,4.0686,4.0684,4.0682,4.0628,4.0628,4.0628,4.0672,0,0,4.0627,4.0627,0,0,0,0,0,0,0,0,4.0832,4.0829,4.0786,4.0782,4.0776,4.0735,4.0764,4.0738,4.0689,4.0721,4.0683,4.068,4.0665,4.0662,4.0657,4.067,4.0667,4.0627,4.0627,4.0627,4.0627,0,0,0,0,0,0,0,4.0834,4.0831,4.0806,4.0786,4.078,4.0759,4.0752,4.0759,4.0706,4.0718,4.0711,4.0706,4.0662,4.0657,4.0655,4.0667,4.0627,4.0627,4.0627,4.0627,4.0712,4.0714,0,0,0,0,0,0,4.0844,4.0833,4.0808,4.0805,4.0799,4.076,4.0753,4.0751,4.0706,4.0697,4.0708,4.0702,4.0658,4.0655,4.0653,4.07,4.0627,4.0627,4.0627,4.071,4.0713,4.0715,0,0,0,0,0,0,4.0845,4.0842,4.081,4.0817,4.0812,4.0762,4.076,4.0751,4.0745,4.0699,4.0689,4.0712,4.0656,4.0653,4.0668,4.0697,4.0627,4.0627,4.0707,4.0711,4.0714,4.0798,0,0,0,0,0,0,4.0846,4.0843,4.086,4.0818,4.0812,4.0827,4.0762,4.0751,4.0745,4.0737,4.07,4.0692,4.0654,4.0668,4.0668,4.0696,4.0627,4.0704,4.0709,4.0713,4.0792,4.0804,4.0814,0,0,0,0,0,4.0848,4.0886,4.0861,4.0858,4.0831,4.0829,4.0825,4.078,4.0748,4.0764,4.0734,4.0693,4.0695,4.0671,4.0669,4.0698,4.0702,4.0707,4.0712,4.0788,4.0802,4.0814,0,0,0,0,0,0,4.0932,4.088,4.0851,4.0877,4.0858,4.0814,4.0833,4.0797,4.0787,4.078,4.0725,4.0718,4.0739,4.072,4.0694,4.0738,4.0692,4.0697,4.075,4.0763,4.0773,4.0777,4.0627,0,0,0,0,0,4.0954,4.0956,4.091,4.0938,4.0929,4.0883,4.0881,4.0848,4.0826,4.0817,4.0788,4.0769,4.0764,4.0763,4.0756,4.079,4.078,4.0809,4.082,4.0829,4.0833,4.0848,4.086,4.0732,4.0732,4.0732,0,0,4.0999,4.097,4.0975,4.0954,4.0935,4.0938,4.0877,4.0883,4.0885,4.0818,4.083,4.0809,4.0783,4.0807,4.0816,4.0791,4.0867,4.0835,4.0843,4.0842,4.0855,4.0867,4.0878,4.0736,4.0735,4.0735,0,0,4.1082,4.1061,4.1081,4.1063,4.1036,4.1004,4.101,4.0971,4.0954,4.0965,4.0915,4.0916,4.0911,4.0894,4.0885,4.0961,4.0923,4.0961,4.1017,4.1032,4.1042,4.105,4.1076,4.1086,4.0966,4.0966,4.0967,0,4.1141,4.1144,4.1096,4.1105,4.1097,4.1037,4.1056,4.1042,4.1014,4.1009,4.0982,4.0973,4.0952,4.097,4.0989,4.0984,4.0987,4.0964,4.1044,4.1052,4.106,4.1084,4.1094,4.0971,4.0971,4.097,4.097,0,4.1217,4.122,4.124,4.1213,4.1207,4.1222,4.1176,4.1176,4.1145,4.1117,4.1128,4.11,4.1087,4.1089,4.1059,4.1103,4.1089,4.1054,4.1006,4.1077,4.1099,4.1108,4.0978,4.0976,4.0975,4.0974,0,0,4.1351,4.1298,4.1306,4.1293,4.1258,4.1259,4.1271,4.1257,4.1257,4.124,4.1248,4.1244,4.1212,4.1201,4.1168,4.1182,4.1243,4.1145,4.1144,4.1163,4.1288,4.1313,4.1325,4.1217,4.1219,4.122,4.129,0,4.1425,4.1442,4.1399,4.1426,4.1428,4.1371,4.1381,4.136,4.1335,4.1332,4.1303,4.1301,4.1259,4.1252,4.1263,4.1233,4.1267,4.1228,4.1223,4.1224,4.123,4.1336,4.1363,4.143,4.1298,4.13,4.1301,0,4.1514,4.1501,4.1528,4.1491,4.149,4.15,4.1483,4.1482,4.1457,4.1437,4.1426,4.1387,4.1396,4.1351,4.1361,4.1336,4.1331,4.1317,4.1318,4.1315,4.1265,4.1334,4.145,4.146,4.1314,4.1313,4.1312,0,4.1607,4.1596,4.1611,4.1602,4.1559,4.1567,4.1549,4.1523,4.1517,4.1503,4.1498,4.1486,4.1479,4.147,4.1429,4.14,4.1443,4.1396,4.1426,4.1427,4.1437,4.1436,4.1552,4.1437,4.1437,4.1437,4.1437,0,4.1694,4.1712,4.1652,4.166,4.1679,4.1631,4.165,4.1627,4.1604,4.1607,4.1558,4.1562,4.1508,4.1506,4.1474,4.1486,4.1484,4.1467,4.1458,4.1471,4.1473,4.1466,4.146,4.1439,4.1439,4.1438,4.1438,0,4.18,4.176,4.1772,4.1731,4.1721,4.1736,4.1701,4.1707,4.1678,4.1682,4.1681,4.1635,4.163,4.1589,4.1574,4.1553,4.1577,4.156,4.1585,4.1579,4.1611,4.1608,4.1725,4.1738,4.1617,4.1618,4.1619,0,4.1857,4.187,4.183,4.1828,4.1813,4.1811,4.1805,4.1758,4.1753,4.1726,4.1736,4.1726,4.1716,4.1711,4.1676,4.1665,4.1646,4.1688,4.1644,4.1656,4.1644,4.1644,4.1644,4.1697,4.1698,4.17,4.1701,0,4.1962,4.1942,4.1935,4.1921,4.1915,4.1902,4.1886,4.1887,4.1835,4.1832,4.1826,4.1819,4.1804,4.1795,4.1777,4.1759,4.1721,4.1715,4.1721,4.1733,4.1747,4.1738,4.1609,4.1712,4.1711,4.171,4.171,4.1709,4.2044,4.2052,4.2025,4.2019,4.2002,4.1988,4.1991,4.1963,4.1957,4.1941,4.1914,4.1912,4.1886,4.1858,4.1843,4.184,4.1818,4.1828,4.183,4.1832,4.1838,4.1749,4.1837,4.1837,4.1837,4.1836,4.1836,0,4.2145,4.2125,4.212,4.2098,4.2094,4.2059,4.2039,4.2037,4.2036,4.2015,4.2006,4.1999,4.199,4.1955,4.1942,4.1947,4.1929,4.1945,4.1943,4.1939,4.186,4.1855,4.1959,4.1959,4.1959,4.1959,4.1959,4.1959,4.2197,4.2209,4.2185,4.2188,4.2168,4.2165,4.2156,4.2143,4.2126,4.212,4.2113,4.209,4.2063,4.2048,4.2038,4.2028,4.2025,4.2047,4.2031,4.1957,4.1945,4.1934,4.1929,4.2047,4.2047,4.211,4.211,4.2111]}]]